TimeAKDT,TemperatureF,Dew PointF,Humidity,Sea Level PressureIn,VisibilityMPH,Wind Direction,Wind SpeedMPH,Gust SpeedMPH,PrecipitationIn,Events,Conditions,WindDirDegrees,DateUTC
12:16 AM,60.8,53.6,77,30.06,10.0,NNW,3.5,-,N/A,,Unknown,330,2013-07-26 08:16:00
12:36 AM,59.0,53.6,82,30.07,10.0,NW,3.5,-,0.02,,Unknown,320,2013-07-26 08:36:00
12:56 AM,57.2,53.6,88,30.07,10.0,Calm,Calm,-,0.07,,Unknown,0,2013-07-26 08:56:00
1:16 AM,57.2,53.6,88,30.08,6.0,Calm,Calm,-,0.08,,Unknown,0,2013-07-26 09:16:00
1:36 AM,57.2,53.6,88,30.08,7.0,Calm,Calm,-,0.12,,Unknown,0,2013-07-26 09:36:00
1:56 AM,57.2,53.6,88,30.07,8.0,SSE,8.1,-,0.15,,Unknown,160,2013-07-26 09:56:00
2:16 AM,57.2,55.4,94,30.08,10.0,North,4.6,-,N/A,,Unknown,10,2013-07-26 10:16:00
2:36 AM,57.2,55.4,94,30.09,7.0,Calm,Calm,-,0.01,,Unknown,0,2013-07-26 10:36:00
2:56 AM,57.2,55.4,94,30.10,8.0,NNW,3.5,-,0.01,,Unknown,330,2013-07-26 10:56:00
3:16 AM,59.0,55.4,88,30.11,9.0,NW,3.5,-,N/A,,Unknown,320,2013-07-26 11:16:00
3:36 AM,57.2,55.4,94,30.11,8.0,WNW,6.9,-,N/A,,Unknown,300,2013-07-26 11:36:00
3:56 AM,57.2,53.6,88,30.12,10.0,West,6.9,-,N/A,,Unknown,280,2013-07-26 11:56:00
4:16 AM,57.2,53.6,88,30.12,10.0,West,6.9,-,N/A,,Unknown,280,2013-07-26 12:16:00
4:36 AM,55.4,51.8,88,30.12,10.0,WNW,5.8,-,N/A,,Unknown,290,2013-07-26 12:36:00
4:56 AM,55.4,51.8,88,30.13,10.0,Calm,Calm,-,N/A,,Unknown,0,2013-07-26 12:56:00
5:16 AM,55.4,53.6,94,30.14,10.0,West,3.5,-,N/A,,Unknown,280,2013-07-26 13:16:00
5:36 AM,55.4,51.8,88,30.14,10.0,WSW,4.6,-,N/A,,Unknown,250,2013-07-26 13:36:00
5:56 AM,55.4,51.8,88,30.14,10.0,WSW,4.6,-,N/A,,Unknown,250,2013-07-26 13:56:00
6:16 AM,55.4,51.8,88,30.14,10.0,West,4.6,-,N/A,,Unknown,260,2013-07-26 14:16:00
6:36 AM,55.4,51.8,88,30.15,10.0,Calm,Calm,-,N/A,,Unknown,0,2013-07-26 14:36:00
6:56 AM,55.4,51.8,88,30.16,10.0,Calm,Calm,-,N/A,,Unknown,0,2013-07-26 14:56:00
7:16 AM,55.4,51.8,88,30.16,10.0,Calm,Calm,-,N/A,,Unknown,0,2013-07-26 15:16:00
7:36 AM,55.4,51.8,88,30.17,10.0,WSW,3.5,-,N/A,,Unknown,240,2013-07-26 15:36:00
7:56 AM,55.4,51.8,88,30.18,10.0,Calm,Calm,-,N/A,,Unknown,0,2013-07-26 15:56:00
8:16 AM,55.4,51.8,88,30.18,10.0,WSW,3.5,-,N/A,,Unknown,250,2013-07-26 16:16:00
8:36 AM,57.2,51.8,82,30.18,10.0,WSW,5.8,-,N/A,,Unknown,250,2013-07-26 16:36:00
8:56 AM,57.2,51.8,82,30.19,10.0,West,5.8,-,N/A,,Unknown,260,2013-07-26 16:56:00
9:16 AM,57.2,53.6,88,30.19,10.0,West,4.6,-,N/A,,Unknown,260,2013-07-26 17:16:00
9:36 AM,57.2,53.6,88,30.20,9.0,West,4.6,-,N/A,,Unknown,260,2013-07-26 17:36:00
9:56 AM,57.2,53.6,88,30.20,4.0,WSW,4.6,-,N/A,,Unknown,250,2013-07-26 17:56:00
10:16 AM,57.2,53.6,88,30.21,10.0,Calm,Calm,-,N/A,,Unknown,0,2013-07-26 18:16:00
10:36 AM,57.2,53.6,88,30.21,10.0,West,4.6,-,N/A,,Unknown,260,2013-07-26 18:36:00
10:56 AM,59.0,53.6,82,30.21,10.0,WSW,6.9,-,N/A,,Unknown,250,2013-07-26 18:56:00
11:16 AM,59.0,53.6,82,30.22,10.0,WSW,5.8,-,N/A,,Unknown,240,2013-07-26 19:16:00
11:36 AM,59.0,53.6,82,30.22,10.0,WSW,9.2,-,N/A,,Unknown,250,2013-07-26 19:36:00
11:56 AM,60.8,53.6,77,30.22,10.0,WSW,6.9,-,N/A,,Unknown,250,2013-07-26 19:56:00
12:16 PM,60.8,55.4,82,30.22,10.0,WSW,6.9,-,N/A,,Unknown,250,2013-07-26 20:16:00
12:36 PM,60.8,53.6,77,30.23,10.0,West,9.2,-,N/A,,Unknown,270,2013-07-26 20:36:00
12:56 PM,60.8,55.4,82,30.23,10.0,WSW,6.9,-,N/A,,Unknown,250,2013-07-26 20:56:00
1:16 PM,62.6,55.4,77,30.23,10.0,SSW,6.9,-,N/A,,Unknown,200,2013-07-26 21:16:00
1:36 PM,62.6,55.4,77,30.23,10.0,SW,4.6,-,N/A,,Unknown,220,2013-07-26 21:36:00
1:56 PM,62.6,53.6,72,30.23,10.0,SW,3.5,-,N/A,,Unknown,230,2013-07-26 21:56:00
2:16 PM,62.6,55.4,77,30.23,10.0,West,6.9,-,N/A,,Unknown,260,2013-07-26 22:16:00
2:36 PM,64.4,55.4,73,30.23,10.0,Calm,Calm,-,N/A,,Unknown,0,2013-07-26 22:36:00
2:56 PM,64.4,55.4,73,30.24,10.0,WSW,5.8,-,N/A,,Unknown,240,2013-07-26 22:56:00
3:16 PM,64.4,55.4,73,30.24,10.0,Calm,Calm,-,N/A,,Unknown,0,2013-07-26 23:16:00
3:36 PM,64.4,55.4,73,30.24,10.0,West,8.1,-,N/A,,Unknown,270,2013-07-26 23:36:00
3:56 PM,64.4,55.4,73,30.24,10.0,WSW,6.9,-,N/A,,Unknown,240,2013-07-26 23:56:00
4:16 PM,64.4,55.4,73,30.24,10.0,SW,8.1,-,N/A,,Unknown,230,2013-07-27 00:16:00
4:36 PM,64.4,55.4,73,30.24,10.0,West,6.9,-,N/A,,Unknown,260,2013-07-27 00:36:00
4:56 PM,64.4,55.4,73,30.25,10.0,West,8.1,-,N/A,,Unknown,280,2013-07-27 00:56:00
5:16 PM,64.4,55.4,73,30.25,10.0,West,9.2,-,N/A,,Unknown,280,2013-07-27 01:16:00
5:36 PM,64.4,55.4,73,30.25,10.0,WNW,9.2,-,N/A,,Unknown,300,2013-07-27 01:36:00
5:56 PM,64.4,55.4,73,30.25,10.0,West,8.1,-,N/A,,Unknown,280,2013-07-27 01:56:00
6:16 PM,64.4,55.4,73,30.25,10.0,NW,6.9,-,N/A,,Unknown,310,2013-07-27 02:16:00
6:36 PM,66.2,55.4,68,30.25,10.0,WNW,10.4,-,N/A,,Unknown,290,2013-07-27 02:36:00
6:56 PM,64.4,55.4,73,30.25,10.0,West,8.1,-,N/A,,Unknown,280,2013-07-27 02:56:00
7:16 PM,64.4,55.4,73,30.25,10.0,WNW,10.4,-,N/A,,Unknown,290,2013-07-27 03:16:00
7:36 PM,64.4,55.4,73,30.25,10.0,West,10.4,-,N/A,,Unknown,280,2013-07-27 03:36:00
7:56 PM,64.4,55.4,73,30.25,10.0,WNW,10.4,-,N/A,,Unknown,300,2013-07-27 03:56:00
8:16 PM,64.4,55.4,73,30.25,10.0,WNW,10.4,-,N/A,,Unknown,300,2013-07-27 04:16:00
8:36 PM,64.4,55.4,73,30.25,10.0,West,9.2,-,N/A,,Unknown,280,2013-07-27 04:36:00
8:56 PM,64.4,53.6,68,30.25,10.0,West,8.1,-,N/A,,Unknown,260,2013-07-27 04:56:00
9:16 PM,62.6,53.6,72,30.25,10.0,West,8.1,-,N/A,,Unknown,260,2013-07-27 05:16:00
9:36 PM,62.6,53.6,72,30.25,10.0,WSW,6.9,-,N/A,,Unknown,250,2013-07-27 05:36:00
9:56 PM,62.6,53.6,72,30.26,10.0,West,5.8,-,N/A,,Unknown,260,2013-07-27 05:56:00
10:16 PM,60.8,53.6,77,30.27,10.0,West,6.9,-,N/A,,Unknown,270,2013-07-27 06:16:00
10:36 PM,60.8,53.6,77,30.27,10.0,West,6.9,-,N/A,,Unknown,280,2013-07-27 06:36:00
10:56 PM,59.0,51.8,77,30.28,10.0,WSW,4.6,-,N/A,,Unknown,250,2013-07-27 06:56:00
11:16 PM,57.2,51.8,82,30.28,10.0,WSW,4.6,-,N/A,,Unknown,250,2013-07-27 07:16:00
11:36 PM,57.2,51.8,82,30.29,10.0,SW,4.6,-,N/A,,Unknown,230,2013-07-27 07:36:00
11:56 PM,57.2,51.8,82,30.29,10.0,WSW,3.5,-,N/A,,Unknown,240,2013-07-27 07:56:00